| time (UTC) | temp F | wind direction | speed knots | gust knots | rain 1hr in | rain 24hr in | rain mn in | humidity % | barometer mb |
| 20260508075042 | 65 | 22 | 0.9 | 7.0 | 0.00 | 0.00 | 0.00 | 75 | 1017.7 |
| 20260508074543 | 65 | 321 | 0.9 | 4.3 | 0.00 | 0.00 | 0.00 | 75 | 1017.8 |
| 20260508074037 | 65 | 0 | 0.0 | 2.6 | 0.00 | 0.00 | 0.00 | 75 | 1017.9 |
| 20260508073536 | 65 | 309 | 0.0 | 2.6 | 0.00 | 0.00 | 0.00 | 75 | 1017.9 |
| 20260508073053 | 65 | 0 | 0.0 | 1.7 | 0.00 | 0.00 | 0.00 | 75 | 1018.0 |
| 20260508072539 | 65 | 0 | 0.0 | 2.6 | 0.00 | 0.00 | 0.00 | 75 | 1018.0 |
| 20260508072036 | 65 | 0 | 0.0 | 2.6 | 0.00 | 0.00 | 0.00 | 75 | 1017.8 |
| 20260508071549 | 65 | 0 | 0.0 | 0.0 | 0.00 | 0.00 | 0.00 | 74 | 1018.0 |
| 20260508071036 | 65 | 0 | 0.0 | 3.5 | 0.00 | 0.00 | 0.00 | 75 | 1018.2 |
| 20260508070539 | 65 | 0 | 0.0 | 6.1 | 0.00 | 0.00 | 0.00 | 75 | 1018.2 |
| 20260508070050 | 65 | 293 | 0.0 | 6.1 | 0.00 | 0.00 | 0.00 | 74 | 1018.2 |
| 20260508065550 | 65 | 69 | 2.6 | 5.2 | 0.00 | 0.00 | 0.00 | 74 | 1017.5 |
| 20260508065035 | 65 | 0 | 0.9 | 3.5 | 0.00 | 0.00 | 0.00 | 74 | 1017.8 |
| 20260508064542 | 65 | 0 | 0.0 | 3.5 | 0.00 | 0.00 | 0.00 | 74 | 1018.0 |
| 20260508064037 | 65 | 0 | 0.0 | 6.1 | 0.00 | 0.00 | 0.00 | 74 | 1018.0 |
| 20260508063538 | 65 | 78 | 0.9 | 6.1 | 0.00 | 0.00 | 0.00 | 74 | 1018.0 |
| 20260508063041 | 65 | 100 | 0.0 | 3.5 | 0.00 | 0.00 | 0.00 | 74 | 1018.0 |
| 20260508062536 | 65 | 0 | 0.0 | 6.1 | 0.00 | 0.00 | 0.00 | 74 | 1017.9 |
| 20260508062036 | 65 | 0 | 0.9 | 7.0 | 0.00 | 0.00 | 0.00 | 74 | 1017.8 |
| 20260508061541 | 65 | 53 | 0.9 | 7.0 | 0.00 | 0.00 | 0.00 | 74 | 1017.5 |
| 20260508061036 | 65 | 44 | 0.9 | 7.0 | 0.00 | 0.00 | 0.00 | 74 | 1017.7 |
| 20260508060537 | 65 | 34 | 0.9 | 5.2 | 0.00 | 0.00 | 0.00 | 74 | 1017.8 |
| 20260508060049 | 65 | 30 | 0.9 | 4.3 | 0.00 | 0.00 | 0.00 | 74 | 1018.0 |
| 20260508055536 | 65 | 0 | 0.9 | 4.3 | 0.00 | 0.00 | 0.00 | 74 | 1018.5 |
| 20260508055036 | 65 | 11 | 0.9 | 8.7 | 0.00 | 0.00 | 0.00 | 74 | 1018.8 |
| 20260508054604 | 65 | 0 | 0.9 | 8.7 | 0.00 | 0.00 | 0.00 | 74 | 1018.9 |
| 20260508054035 | 65 | 44 | 0.0 | 4.3 | 0.00 | 0.00 | 0.00 | 74 | 1019.0 |
| 20260508053538 | 65 | 352 | 0.9 | 4.3 | 0.00 | 0.00 | 0.00 | 74 | 1019.1 |
| 20260508053045 | 65 | 0 | 0.0 | 6.1 | 0.00 | 0.00 | 0.00 | 74 | 1019.3 |
| 20260508052536 | 65 | 311 | 0.9 | 6.1 | 0.00 | 0.00 | 0.00 | 74 | 1019.3 |
| 20260508052038 | 66 | 0 | 0.0 | 5.2 | 0.00 | 0.00 | 0.00 | 74 | 1019.3 |
| 20260508051542 | 66 | 279 | 0.0 | 2.6 | 0.00 | 0.00 | 0.00 | 73 | 1019.4 |
| 20260508051036 | 66 | 283 | 0.0 | 1.7 | 0.00 | 0.00 | 0.00 | 74 | 1019.4 |
| 20260508050537 | 65 | 0 | 0.0 | 0.9 | 0.00 | 0.00 | 0.00 | 74 | 1019.1 |
| 20260508050050 | 65 | 0 | 0.0 | 4.3 | 0.00 | 0.00 | 0.00 | 74 | 1018.4 |
| 20260508045536 | 65 | 0 | 0.0 | 5.2 | 0.00 | 0.00 | 0.00 | 73 | 1018.0 |
| 20260508045036 | 65 | 59 | 1.7 | 7.8 | 0.00 | 0.00 | 0.00 | 73 | 1017.8 |
| 20260508044557 | 65 | 0 | 1.7 | 7.8 | 0.00 | 0.00 | 0.00 | 73 | 1017.5 |
| 20260508044037 | 65 | 0 | 0.9 | 7.8 | 0.00 | 0.00 | 0.00 | 73 | 1017.7 |
| 20260508043536 | 65 | 352 | 0.9 | 8.7 | 0.00 | 0.00 | 0.00 | 73 | 1017.6 |
| 20260508043048 | 65 | 47 | 1.7 | 8.7 | 0.00 | 0.00 | 0.00 | 73 | 1017.5 |
| 20260508042538 | 66 | 42 | 1.7 | 8.7 | 0.00 | 0.00 | 0.00 | 73 | 1017.5 |
| 20260508042036 | 66 | 26 | 1.7 | 8.7 | 0.00 | 0.00 | 0.00 | 73 | 1017.8 |
| 20260508041556 | 66 | 46 | 1.7 | 8.7 | 0.00 | 0.00 | 0.00 | 73 | 1017.9 |
| 20260508041036 | 66 | 0 | 0.9 | 7.8 | 0.00 | 0.00 | 0.00 | 73 | 1017.9 |
| 20260508040536 | 66 | 0 | 0.9 | 7.8 | 0.00 | 0.00 | 0.00 | 73 | 1017.8 |
| 20260508040056 | 66 | 43 | 0.9 | 10.4 | 0.00 | 0.00 | 0.00 | 73 | 1017.9 |
| 20260508035536 | 66 | 12 | 0.9 | 10.4 | 0.00 | 0.00 | 0.00 | 73 | 1018.2 |
| 20260508035036 | 66 | 341 | 0.9 | 9.6 | 0.00 | 0.00 | 0.00 | 72 | 1018.5 |
| 20260508034555 | 66 | 9 | 1.7 | 9.6 | 0.00 | 0.00 | 0.00 | 73 | 1018.8 |
| 20260508034058 | 66 | 0 | 1.7 | 7.0 | 0.00 | 0.00 | 0.00 | 73 | 1018.7 |
| 20260508033533 | 66 | 329 | 0.9 | 7.0 | 0.00 | 0.00 | 0.00 | 73 | 1018.9 |
| 20260508033044 | 66 | 41 | 0.9 | 6.1 | 0.00 | 0.00 | 0.00 | 74 | 1019.0 |
| 20260508032538 | 66 | 302 | 1.7 | 4.3 | 0.00 | 0.00 | 0.00 | 74 | 1019.0 |
| 20260508032035 | 66 | 22 | 0.9 | 6.1 | 0.00 | 0.00 | 0.00 | 75 | 1018.7 |
| 20260508031558 | 66 | 0 | 0.0 | 6.1 | 0.00 | 0.00 | 0.00 | 75 | 1018.8 |
| 20260508031034 | 66 | 0 | 0.9 | 6.1 | 0.00 | 0.00 | 0.00 | 75 | 1018.7 |
| 20260508030534 | 66 | 352 | 0.0 | 2.6 | 0.00 | 0.00 | 0.00 | 76 | 1018.6 |
| 20260508030106 | 66 | 308 | 0.0 | 2.6 | 0.00 | 0.00 | 0.00 | 75 | 1018.7 |
| 20260508025534 | 66 | 0 | 0.0 | 1.7 | 0.00 | 0.00 | 0.00 | 75 | 1018.4 |
| 20260508025034 | 66 | 0 | 0.0 | 1.7 | 0.00 | 0.00 | 0.00 | 76 | 1018.5 |
| 20260508024540 | 66 | 0 | 0.0 | 0.0 | 0.00 | 0.00 | 0.00 | 75 | 1018.4 |
| 20260508024034 | 66 | 0 | 0.0 | 0.0 | 0.00 | 0.00 | 0.00 | 75 | 1018.3 |
| 20260508023535 | 66 | 0 | 0.0 | 0.9 | 0.00 | 0.00 | 0.00 | 74 | 1018.3 |
| 20260508023047 | 66 | 0 | 0.0 | 2.6 | 0.00 | 0.00 | 0.00 | 74 | 1018.3 |
| 20260508022534 | 66 | 0 | 0.0 | 2.6 | 0.00 | 0.00 | 0.00 | 74 | 1018.3 |
| 20260508022035 | 66 | 0 | 0.0 | 1.7 | 0.00 | 0.00 | 0.00 | 74 | 1018.1 |
| 20260508021542 | 67 | 0 | 0.0 | 1.7 | 0.00 | 0.00 | 0.00 | 73 | 1018.2 |
| 20260508021035 | 67 | 0 | 0.0 | 1.7 | 0.00 | 0.00 | 0.00 | 73 | 1018.2 |
| 20260508020534 | 67 | 0 | 0.0 | 2.6 | 0.00 | 0.00 | 0.00 | 73 | 1018.1 |
| 20260508020041 | 67 | 0 | 0.0 | 5.2 | 0.00 | 0.00 | 0.00 | 73 | 1017.9 |
| 20260508015534 | 67 | 0 | 0.0 | 5.2 | 0.00 | 0.00 | 0.00 | 73 | 1017.9 |
| 20260508015034 | 67 | 78 | 0.0 | 7.0 | 0.00 | 0.00 | 0.00 | 72 | 1017.5 |
| 20260508014540 | 67 | 52 | 1.7 | 7.0 | 0.00 | 0.00 | 0.00 | 72 | 1017.2 |
| 20260508014037 | 67 | 101 | 2.6 | 7.0 | 0.00 | 0.00 | 0.00 | 72 | 1016.9 |
| 20260508013535 | 67 | 97 | 2.6 | 5.2 | 0.00 | 0.00 | 0.00 | 72 | 1017.1 |
| 20260508013039 | 67 | 101 | 0.9 | 8.7 | 0.00 | 0.00 | 0.00 | 72 | 1017.1 |
| 20260508012534 | 67 | 84 | 0.9 | 8.7 | 0.00 | 0.00 | 0.00 | 71 | 1017.1 |
| 20260508012034 | 67 | 65 | 1.7 | 8.7 | 0.00 | 0.00 | 0.00 | 71 | 1016.7 |
| 20260508011554 | 67 | 59 | 2.6 | 8.7 | 0.00 | 0.00 | 0.00 | 71 | 1016.5 |
| 20260508011035 | 67 | 84 | 3.5 | 8.7 | 0.00 | 0.00 | 0.00 | 71 | 1016.6 |
| 20260508010534 | 67 | 81 | 4.3 | 8.7 | 0.00 | 0.00 | 0.00 | 70 | 1016.7 |
| 20260508010050 | 67 | 78 | 3.5 | 8.7 | 0.00 | 0.00 | 0.00 | 70 | 1016.6 |
| 20260508005536 | 68 | 95 | 2.6 | 8.7 | 0.00 | 0.00 | 0.00 | 70 | 1016.8 |
| 20260508005034 | 68 | 82 | 4.3 | 9.6 | 0.00 | 0.00 | 0.00 | 69 | 1017.0 |
| 20260508004542 | 68 | 54 | 2.6 | 9.6 | 0.00 | 0.00 | 0.00 | 70 | 1017.4 |
| 20260508004035 | 68 | 61 | 2.6 | 9.6 | 0.00 | 0.00 | 0.00 | 69 | 1017.4 |
| 20260508003535 | 68 | 28 | 1.7 | 6.1 | 0.00 | 0.00 | 0.00 | 69 | 1017.6 |
| 20260508003044 | 68 | 55 | 2.6 | 6.1 | 0.00 | 0.00 | 0.00 | 68 | 1017.7 |
| 20260508002534 | 68 | 120 | 0.9 | 8.7 | 0.00 | 0.00 | 0.00 | 69 | 1017.6 |
| 20260508002034 | 68 | 73 | 1.7 | 8.7 | 0.00 | 0.00 | 0.00 | 69 | 1017.9 |
| 20260508001543 | 68 | 74 | 1.7 | 7.0 | 0.00 | 0.00 | 0.00 | 68 | 1017.8 |
| 20260508001034 | 68 | 73 | 0.9 | 5.2 | 0.00 | 0.00 | 0.00 | 68 | 1018.0 |
| 20260508000534 | 68 | 54 | 0.9 | 7.8 | 0.00 | 0.00 | 0.00 | 68 | 1018.4 |
| 20260508000048 | 68 | 360 | 2.6 | 8.7 | 0.00 | 0.00 | 0.00 | 68 | 1018.5 |
| 20260507235534 | 68 | 5 | 1.7 | 11.3 | 0.00 | 0.00 | 0.00 | 68 | 1018.4 |
| 20260507235034 | 69 | 278 | 2.6 | 11.3 | 0.00 | 0.00 | 0.00 | 68 | 1018.2 |
| 20260507234542 | 69 | 26 | 1.7 | 8.7 | 0.00 | 0.00 | 0.00 | 68 | 1018.4 |
| 20260507234034 | 69 | 10 | 2.6 | 8.7 | 0.00 | 0.00 | 0.00 | 67 | 1018.4 |
| 20260507233535 | 69 | 352 | 0.9 | 10.4 | 0.00 | 0.00 | 0.00 | 67 | 1018.7 |
| 20260507233043 | 69 | 5 | 1.7 | 10.4 | 0.00 | 0.00 | 0.00 | 67 | 1018.7 |
| 20260507232538 | 69 | 39 | 1.7 | 8.7 | 0.00 | 0.00 | 0.00 | 67 | 1018.5 |
| 20260507232034 | 69 | 76 | 1.7 | 9.6 | 0.00 | 0.00 | 0.00 | 67 | 1018.3 |
| 20260507231550 | 70 | 331 | 2.6 | 9.6 | 0.00 | 0.00 | 0.00 | 66 | 1018.4 |
| 20260507231034 | 70 | 84 | 0.9 | 9.6 | 0.00 | 0.00 | 0.00 | 66 | 1018.4 |
| 20260507230536 | 70 | 65 | 2.6 | 7.8 | 0.00 | 0.00 | 0.00 | 67 | 1018.3 |
| 20260507230041 | 70 | 27 | 0.9 | 7.8 | 0.00 | 0.00 | 0.00 | 67 | 1018.6 |
| 20260507225534 | 70 | 0 | 0.0 | 12.2 | 0.00 | 0.00 | 0.00 | 68 | 1018.8 |
| 20260507225034 | 70 | 0 | 2.6 | 12.2 | 0.00 | 0.00 | 0.00 | 67 | 1019.0 |
| 20260507224558 | 70 | 46 | 1.7 | 10.4 | 0.00 | 0.00 | 0.00 | 67 | 1018.7 |
| 20260507224034 | 70 | 0 | 0.0 | 10.4 | 0.00 | 0.00 | 0.00 | 68 | 1018.8 |
| 20260507223534 | 69 | 349 | 1.7 | 10.4 | 0.00 | 0.00 | 0.00 | 67 | 1019.0 |
| 20260507223047 | 69 | 352 | 2.6 | 11.3 | 0.00 | 0.00 | 0.00 | 68 | 1018.8 |
| 20260507222535 | 70 | 35 | 1.7 | 11.3 | 0.00 | 0.00 | 0.00 | 68 | 1019.2 |
| 20260507222034 | 70 | 317 | 2.6 | 10.4 | 0.00 | 0.00 | 0.00 | 68 | 1019.3 |
| 20260507221543 | 70 | 13 | 2.6 | 10.4 | 0.00 | 0.00 | 0.00 | 68 | 1019.2 |
| 20260507221034 | 70 | 28 | 0.9 | 10.4 | 0.00 | 0.00 | 0.00 | 69 | 1019.2 |
| 20260507220535 | 70 | 0 | 2.6 | 10.4 | 0.00 | 0.00 | 0.00 | 68 | 1019.2 |
| 20260507220040 | 70 | 332 | 2.6 | 9.6 | 0.00 | 0.00 | 0.00 | 69 | 1019.0 |
| 20260507215535 | 70 | 0 | 1.7 | 11.3 | 0.00 | 0.00 | 0.00 | 69 | 1019.2 |
| 20260507215035 | 70 | 314 | 2.6 | 11.3 | 0.00 | 0.00 | 0.00 | 69 | 1019.2 |
| 20260507214541 | 70 | 24 | 2.6 | 11.3 | 0.00 | 0.00 | 0.00 | 70 | 1019.2 |
| 20260507214034 | 71 | 349 | 2.6 | 11.3 | 0.00 | 0.00 | 0.00 | 69 | 1019.2 |
| 20260507213534 | 71 | 49 | 1.7 | 10.4 | 0.00 | 0.00 | 0.00 | 70 | 1019.1 |
| 20260507213047 | 71 | 15 | 3.5 | 10.4 | 0.00 | 0.00 | 0.00 | 69 | 1019.1 |
| 20260507212534 | 72 | 331 | 1.7 | 9.6 | 0.00 | 0.00 | 0.00 | 68 | 1019.2 |
| 20260507212036 | 72 | 301 | 3.5 | 13.9 | 0.00 | 0.00 | 0.00 | 66 | 1019.1 |
| 20260507211544 | 73 | 325 | 3.5 | 13.9 | 0.00 | 0.00 | 0.00 | 66 | 1018.9 |
| 20260507211035 | 73 | 5 | 4.3 | 13.0 | 0.00 | 0.00 | 0.00 | 66 | 1018.8 |
| 20260507210536 | 74 | 46 | 2.6 | 9.6 | 0.00 | 0.00 | 0.00 | 65 | 1018.9 |
| 20260507210108 | 74 | 0 | 1.7 | 11.3 | 0.00 | 0.00 | 0.00 | 67 | 1018.5 |
| 20260507205536 | 74 | 352 | 4.3 | 11.3 | 0.00 | 0.00 | 0.00 | 65 | 1018.7 |
| 20260507205039 | 75 | 35 | 1.7 | 8.7 | 0.00 | 0.00 | 0.00 | 66 | 1018.8 |
| 20260507204538 | 75 | 78 | 2.6 | 10.4 | 0.00 | 0.00 | 0.00 | 65 | 1018.7 |
| 20260507204036 | 76 | 60 | 1.7 | 10.4 | 0.00 | 0.00 | 0.00 | 65 | 1018.7 |
| 20260507203536 | 76 | 0 | 1.7 | 9.6 | 0.00 | 0.00 | 0.00 | 64 | 1018.9 |
| 20260507203040 | 76 | 26 | 3.5 | 9.6 | 0.00 | 0.00 | 0.00 | 64 | 1018.8 |
| 20260507202539 | 76 | 0 | 0.9 | 10.4 | 0.00 | 0.00 | 0.00 | 64 | 1018.6 |
| 20260507202036 | 75 | 0 | 3.5 | 10.4 | 0.00 | 0.00 | 0.00 | 66 | 1018.7 |
| 20260507201538 | 75 | 35 | 1.7 | 9.6 | 0.00 | 0.00 | 0.00 | 66 | 1018.7 |
| 20260507201036 | 75 | 352 | 2.6 | 10.4 | 0.00 | 0.00 | 0.00 | 67 | 1018.9 |
| 20260507200537 | 73 | 13 | 2.6 | 10.4 | 0.00 | 0.00 | 0.00 | 70 | 1019.0 |
| 20260507200055 | 72 | 313 | 1.7 | 8.7 | 0.00 | 0.00 | 0.00 | 70 | 1019.1 |
| 20260507195539 | 72 | 15 | 1.7 | 8.7 | 0.00 | 0.00 | 0.00 | 70 | 1019.2 |
| 20260507195037 | 71 | 0 | 1.7 | 12.2 | 0.00 | 0.00 | 0.00 | 70 | 1019.2 |
| 20260507194541 | 72 | 330 | 3.5 | 12.2 | 0.00 | 0.00 | 0.00 | 70 | 1019.0 |
| 20260507194036 | 71 | 335 | 1.7 | 10.4 | 0.00 | 0.00 | 0.00 | 70 | 1018.9 |
| 20260507193538 | 71 | 0 | 0.9 | 9.6 | 0.00 | 0.00 | 0.00 | 71 | 1018.7 |
| 20260507193109 | 71 | 20 | 3.5 | 13.0 | 0.00 | 0.00 | 0.00 | 70 | 1018.7 |
| 20260507192537 | 71 | 69 | 2.6 | 13.0 | 0.00 | 0.00 | 0.00 | 71 | 1019.0 |
| 20260507192036 | 71 | 336 | 3.5 | 13.0 | 0.00 | 0.00 | 0.00 | 71 | 1019.3 |
| 20260507191545 | 71 | 352 | 2.6 | 7.8 | 0.00 | 0.00 | 0.00 | 71 | 1019.4 |
| 20260507191038 | 71 | 5 | 0.9 | 7.8 | 0.00 | 0.00 | 0.00 | 71 | 1019.7 |
| 20260507190537 | 71 | 85 | 1.7 | 7.8 | 0.00 | 0.00 | 0.00 | 72 | 1019.7 |
| 20260507190047 | 70 | 84 | 1.7 | 6.1 | 0.00 | 0.00 | 0.00 | 73 | 1019.7 |
| 20260507185536 | 70 | 0 | 0.9 | 7.8 | 0.00 | 0.00 | 0.00 | 73 | 1019.8 |
| 20260507185036 | 70 | 347 | 1.7 | 8.7 | 0.00 | 0.00 | 0.00 | 73 | 1020.0 |
| 20260507184542 | 69 | 18 | 0.9 | 8.7 | 0.00 | 0.00 | 0.00 | 74 | 1020.3 |
| 20260507184036 | 69 | 339 | 3.5 | 8.7 | 0.00 | 0.00 | 0.00 | 73 | 1020.2 |
| 20260507183535 | 69 | 21 | 1.7 | 7.8 | 0.00 | 0.00 | 0.00 | 74 | 1020.4 |
| 20260507183049 | 69 | 0 | 0.9 | 7.8 | 0.00 | 0.00 | 0.00 | 75 | 1020.7 |
| 20260507182538 | 68 | 342 | 1.7 | 8.7 | 0.00 | 0.00 | 0.00 | 75 | 1020.9 |
| 20260507182037 | 68 | 308 | 1.7 | 9.6 | 0.00 | 0.00 | 0.00 | 74 | 1020.9 |
| 20260507181540 | 69 | 27 | 2.6 | 9.6 | 0.00 | 0.00 | 0.00 | 73 | 1020.9 |
| 20260507181036 | 69 | 17 | 1.7 | 8.7 | 0.00 | 0.00 | 0.00 | 74 | 1020.7 |
| 20260507180537 | 68 | 0 | 2.6 | 8.7 | 0.00 | 0.00 | 0.00 | 74 | 1020.6 |
| 20260507180040 | 68 | 68 | 3.5 | 8.7 | 0.00 | 0.00 | 0.00 | 74 | 1020.6 |
| 20260507175536 | 68 | 80 | 2.6 | 7.8 | 0.00 | 0.00 | 0.00 | 75 | 1020.6 |
| 20260507175036 | 67 | 0 | 0.9 | 10.4 | 0.00 | 0.00 | 0.00 | 76 | 1020.7 |
| 20260507174546 | 67 | 0 | 1.7 | 12.2 | 0.00 | 0.00 | 0.00 | 77 | 1020.8 |
| 20260507174035 | 66 | 24 | 2.6 | 12.2 | 0.00 | 0.00 | 0.00 | 78 | 1020.8 |
| 20260507173536 | 66 | 19 | 3.5 | 10.4 | 0.00 | 0.00 | 0.00 | 78 | 1020.8 |
| 20260507173056 | 65 | 45 | 2.6 | 10.4 | 0.00 | 0.00 | 0.00 | 79 | 1020.9 |
| 20260507172535 | 65 | 5 | 1.7 | 10.4 | 0.00 | 0.00 | 0.00 | 80 | 1021.0 |
| 20260507172037 | 65 | 0 | 2.6 | 10.4 | 0.00 | 0.00 | 0.00 | 80 | 1021.0 |
| 20260507171551 | 64 | 69 | 1.7 | 10.4 | 0.00 | 0.00 | 0.00 | 80 | 1021.0 |
| 20260507171036 | 64 | 0 | 1.7 | 13.0 | 0.00 | 0.00 | 0.00 | 80 | 1021.1 |
| 20260507170536 | 64 | 5 | 1.7 | 13.0 | 0.00 | 0.00 | 0.00 | 80 | 1021.3 |
| 20260507170047 | 64 | 44 | 3.5 | 13.0 | 0.00 | 0.00 | 0.00 | 80 | 1021.5 |
| 20260507165536 | 64 | 283 | 1.7 | 12.2 | 0.00 | 0.00 | 0.00 | 80 | 1021.5 |
| 20260507165036 | 64 | 5 | 2.6 | 12.2 | 0.00 | 0.00 | 0.00 | 80 | 1021.5 |
| 20260507164540 | 64 | 340 | 1.7 | 10.4 | 0.00 | 0.00 | 0.00 | 81 | 1021.4 |
| 20260507164037 | 64 | 15 | 2.6 | 11.3 | 0.00 | 0.00 | 0.00 | 81 | 1021.4 |
| 20260507163537 | 64 | 70 | 2.6 | 11.3 | 0.00 | 0.00 | 0.00 | 81 | 1021.4 |
| 20260507163040 | 64 | 82 | 2.6 | 10.4 | 0.00 | 0.00 | 0.00 | 81 | 1021.3 |
| 20260507162536 | 64 | 325 | 1.7 | 10.4 | 0.00 | 0.00 | 0.00 | 81 | 1021.2 |
| 20260507162036 | 64 | 13 | 0.9 | 11.3 | 0.00 | 0.00 | 0.00 | 81 | 1021.1 |
| 20260507161605 | 63 | 324 | 2.6 | 13.0 | 0.00 | 0.00 | 0.00 | 81 | 1021.2 |
| 20260507161036 | 63 | 49 | 4.3 | 13.0 | 0.00 | 0.00 | 0.00 | 81 | 1021.1 |
| 20260507160537 | 64 | 28 | 2.6 | 12.2 | 0.00 | 0.00 | 0.00 | 81 | 1021.0 |
| 20260507155537 | 63 | 12 | 4.3 | 18.2 | 0.00 | 0.00 | 0.00 | 81 | 1020.9 |
| 20260507155036 | 64 | 328 | 5.2 | 18.2 | 0.00 | 0.00 | 0.00 | 81 | 1020.9 |
| 20260507154545 | 64 | 75 | 4.3 | 14.8 | 0.00 | 0.00 | 0.00 | 81 | 1021.0 |
| 20260507154037 | 64 | 43 | 3.5 | 14.8 | 0.00 | 0.00 | 0.00 | 81 | 1020.9 |
| 20260507153536 | 64 | 36 | 5.2 | 14.8 | 0.00 | 0.00 | 0.00 | 81 | 1020.4 |
| 20260507153046 | 64 | 5 | 3.5 | 14.8 | 0.00 | 0.00 | 0.00 | 81 | 1020.7 |
| 20260507152537 | 63 | 314 | 5.2 | 14.8 | 0.00 | 0.00 | 0.00 | 81 | 1020.6 |
| 20260507152036 | 64 | 295 | 6.1 | 15.6 | 0.00 | 0.00 | 0.00 | 80 | 1020.3 |
| 20260507151545 | 64 | 5 | 5.2 | 15.6 | 0.00 | 0.00 | 0.00 | 80 | 1020.3 |
| 20260507151037 | 64 | 322 | 4.3 | 14.8 | 0.00 | 0.00 | 0.00 | 81 | 1020.2 |
| 20260507150540 | 64 | 44 | 6.1 | 16.5 | 0.00 | 0.00 | 0.00 | 81 | 1019.9 |
| 20260507150043 | 64 | 334 | 2.6 | 16.5 | 0.00 | 0.00 | 0.00 | 82 | 1020.0 |
| 20260507145537 | 63 | 329 | 5.2 | 16.5 | 0.00 | 0.00 | 0.00 | 82 | 1020.1 |
| 20260507145035 | 63 | 360 | 6.1 | 14.8 | 0.00 | 0.00 | 0.00 | 82 | 1020.2 |
| 20260507144549 | 63 | 339 | 3.5 | 20.0 | 0.00 | 0.00 | 0.00 | 82 | 1020.4 |
| 20260507144038 | 63 | 5 | 5.2 | 21.7 | 0.00 | 0.00 | 0.00 | 83 | 1020.4 |
| 20260507143536 | 63 | 360 | 4.3 | 21.7 | 0.00 | 0.00 | 0.00 | 82 | 1020.3 |
| 20260507143051 | 63 | 45 | 3.5 | 13.0 | 0.00 | 0.00 | 0.00 | 83 | 1020.3 |
| 20260507142536 | 63 | 345 | 4.3 | 13.0 | 0.00 | 0.00 | 0.00 | 83 | 1020.2 |
| 20260507142040 | 63 | 346 | 4.3 | 13.9 | 0.00 | 0.00 | 0.00 | 83 | 1020.1 |
| 20260507141600 | 63 | 338 | 5.2 | 15.6 | 0.00 | 0.00 | 0.00 | 83 | 1020.1 |
| 20260507141037 | 63 | 291 | 1.7 | 15.6 | 0.00 | 0.00 | 0.00 | 83 | 1019.9 |
| 20260507140536 | 63 | 15 | 3.5 | 13.0 | 0.00 | 0.00 | 0.00 | 83 | 1019.9 |
| 20260507140052 | 62 | 5 | 2.6 | 12.2 | 0.00 | 0.00 | 0.00 | 83 | 1020.2 |
| 20260507135538 | 63 | 0 | 0.9 | 17.4 | 0.00 | 0.00 | 0.00 | 83 | 1020.2 |
| 20260507135037 | 62 | 352 | 6.1 | 17.4 | 0.00 | 0.00 | 0.00 | 83 | 1020.1 |
| 20260507134551 | 63 | 343 | 1.7 | 15.6 | 0.00 | 0.00 | 0.00 | 83 | 1020.0 |
| 20260507134036 | 63 | 329 | 5.2 | 15.6 | 0.00 | 0.00 | 0.00 | 83 | 1019.8 |
| 20260507133537 | 63 | 42 | 3.5 | 18.2 | 0.00 | 0.00 | 0.00 | 82 | 1020.1 |
| 20260507133050 | 63 | 280 | 3.5 | 18.2 | 0.00 | 0.00 | 0.00 | 82 | 1020.0 |
| 20260507132536 | 63 | 33 | 4.3 | 18.2 | 0.00 | 0.00 | 0.00 | 82 | 1019.9 |
| 20260507132036 | 63 | 55 | 3.5 | 12.2 | 0.00 | 0.00 | 0.00 | 82 | 1019.9 |
| 20260507131550 | 63 | 74 | 3.5 | 12.2 | 0.00 | 0.00 | 0.00 | 82 | 1019.8 |
| 20260507131036 | 63 | 314 | 2.6 | 12.2 | 0.00 | 0.00 | 0.00 | 82 | 1019.9 |
| 20260507130537 | 63 | 22 | 3.5 | 13.0 | 0.00 | 0.00 | 0.00 | 82 | 1019.8 |
| 20260507130051 | 63 | 346 | 3.5 | 13.0 | 0.00 | 0.00 | 0.00 | 81 | 1019.9 |
| 20260507125536 | 63 | 133 | 2.6 | 16.5 | 0.00 | 0.00 | 0.00 | 81 | 1020.0 |
| 20260507125036 | 63 | 334 | 4.3 | 16.5 | 0.00 | 0.00 | 0.00 | 81 | 1019.8 |
| 20260507124543 | 63 | 19 | 3.5 | 12.2 | 0.00 | 0.00 | 0.00 | 81 | 1019.7 |
| 20260507124039 | 63 | 340 | 3.5 | 12.2 | 0.00 | 0.00 | 0.00 | 81 | 1019.5 |
| 20260507123537 | 63 | 46 | 3.5 | 15.6 | 0.00 | 0.00 | 0.00 | 80 | 1019.5 |
| 20260507123046 | 63 | 5 | 3.5 | 15.6 | 0.00 | 0.00 | 0.00 | 81 | 1019.4 |
| 20260507122536 | 63 | 352 | 3.5 | 12.2 | 0.00 | 0.00 | 0.00 | 80 | 1019.4 |
| 20260507122038 | 64 | 53 | 3.5 | 12.2 | 0.00 | 0.00 | 0.00 | 80 | 1019.5 |
| 20260507121540 | 64 | 319 | 2.6 | 11.3 | 0.00 | 0.00 | 0.00 | 80 | 1019.4 |
| 20260507121037 | 64 | 340 | 2.6 | 11.3 | 0.00 | 0.00 | 0.00 | 80 | 1019.6 |
| 20260507120536 | 64 | 29 | 2.6 | 9.6 | 0.00 | 0.00 | 0.00 | 80 | 1019.5 |
| 20260507120039 | 64 | 334 | 1.7 | 9.6 | 0.00 | 0.00 | 0.00 | 80 | 1019.5 |
| 20260507115536 | 64 | 0 | 1.7 | 10.4 | 0.00 | 0.00 | 0.00 | 80 | 1019.4 |
| 20260507115037 | 64 | 43 | 2.6 | 10.4 | 0.00 | 0.00 | 0.00 | 80 | 1019.2 |
| 20260507114553 | 64 | 30 | 2.6 | 8.7 | 0.00 | 0.00 | 0.00 | 79 | 1018.9 |
| 20260507114035 | 64 | 40 | 3.5 | 8.7 | 0.00 | 0.00 | 0.00 | 79 | 1018.9 |
| 20260507113534 | 64 | 24 | 1.7 | 7.8 | 0.00 | 0.00 | 0.00 | 80 | 1018.6 |
| 20260507113044 | 64 | 344 | 0.9 | 8.7 | 0.00 | 0.00 | 0.00 | 80 | 1018.6 |
| 20260507112534 | 64 | 12 | 1.7 | 8.7 | 0.00 | 0.00 | 0.00 | 80 | 1018.5 |
| 20260507112033 | 64 | 0 | 0.9 | 7.0 | 0.00 | 0.00 | 0.00 | 80 | 1018.6 |
| 20260507111553 | 64 | 46 | 0.0 | 9.6 | 0.00 | 0.00 | 0.00 | 80 | 1018.6 |
| 20260507111033 | 64 | 26 | 0.9 | 9.6 | 0.00 | 0.00 | 0.00 | 80 | 1018.9 |
| 20260507110534 | 64 | 352 | 1.7 | 13.0 | 0.00 | 0.00 | 0.00 | 80 | 1018.6 |
| 20260507110049 | 64 | 0 | 2.6 | 13.0 | 0.00 | 0.00 | 0.00 | 79 | 1018.6 |
| 20260507105534 | 64 | 34 | 2.6 | 10.4 | 0.00 | 0.00 | 0.00 | 79 | 1018.6 |
| 20260507105034 | 64 | 9 | 3.5 | 10.4 | 0.00 | 0.00 | 0.00 | 79 | 1018.3 |
| 20260507104540 | 64 | 0 | 1.7 | 13.9 | 0.00 | 0.00 | 0.00 | 79 | 1018.2 |
| 20260507104034 | 64 | 326 | 5.2 | 14.8 | 0.00 | 0.00 | 0.00 | 79 | 1017.9 |
| 20260507103535 | 64 | 307 | 4.3 | 14.8 | 0.00 | 0.00 | 0.00 | 79 | 1017.8 |
| 20260507103045 | 64 | 322 | 2.6 | 13.9 | 0.00 | 0.00 | 0.00 | 79 | 1017.8 |
| 20260507102534 | 64 | 86 | 4.3 | 13.9 | 0.00 | 0.00 | 0.00 | 79 | 1018.0 |
| 20260507102035 | 64 | 18 | 1.7 | 13.0 | 0.00 | 0.00 | 0.00 | 79 | 1017.8 |
| 20260507101556 | 64 | 15 | 3.5 | 13.0 | 0.00 | 0.00 | 0.00 | 79 | 1017.9 |
| 20260507101034 | 64 | 28 | 2.6 | 13.0 | 0.00 | 0.00 | 0.00 | 79 | 1017.9 |
| 20260507100535 | 64 | 5 | 3.5 | 11.3 | 0.00 | 0.00 | 0.00 | 79 | 1017.7 |
| 20260507100047 | 64 | 352 | 1.7 | 10.4 | 0.00 | 0.00 | 0.00 | 79 | 1017.9 |
| 20260507095535 | 64 | 348 | 1.7 | 10.4 | 0.00 | 0.00 | 0.00 | 80 | 1017.8 |
| 20260507095034 | 64 | 0 | 1.7 | 12.2 | 0.00 | 0.00 | 0.00 | 79 | 1017.6 |
| 20260507094542 | 64 | 334 | 3.5 | 12.2 | 0.00 | 0.00 | 0.00 | 79 | 1017.7 |
| 20260507094034 | 64 | 318 | 1.7 | 13.0 | 0.00 | 0.00 | 0.00 | 79 | 1017.9 |
| 20260507093534 | 64 | 360 | 2.6 | 13.0 | 0.00 | 0.00 | 0.00 | 79 | 1017.8 |
| 20260507093045 | 64 | 315 | 3.5 | 8.7 | 0.00 | 0.00 | 0.00 | 79 | 1017.8 |
| 20260507092534 | 64 | 9 | 0.9 | 8.7 | 0.00 | 0.00 | 0.00 | 80 | 1018.0 |
| 20260507092035 | 64 | 26 | 2.6 | 8.7 | 0.00 | 0.00 | 0.00 | 80 | 1017.9 |
| 20260507091545 | 64 | 15 | 3.5 | 9.6 | 0.00 | 0.00 | 0.00 | 80 | 1018.0 |
| 20260507091038 | 64 | 55 | 1.7 | 9.6 | 0.00 | 0.00 | 0.00 | 80 | 1018.0 |
| 20260507090535 | 64 | 311 | 2.6 | 11.3 | 0.00 | 0.00 | 0.00 | 80 | 1018.1 |
| 20260507090043 | 64 | 5 | 2.6 | 11.3 | 0.00 | 0.00 | 0.00 | 79 | 1018.0 |
| 20260507085538 | 64 | 27 | 3.5 | 10.4 | 0.00 | 0.00 | 0.00 | 79 | 1017.9 |
| 20260507085035 | 64 | 325 | 2.6 | 9.6 | 0.00 | 0.00 | 0.00 | 79 | 1017.8 |
| 20260507084543 | 64 | 0 | 3.5 | 8.7 | 0.00 | 0.00 | 0.00 | 79 | 1017.9 |
| 20260507084034 | 65 | 0 | 0.9 | 8.7 | 0.00 | 0.00 | 0.00 | 79 | 1018.1 |
| 20260507083535 | 65 | 360 | 1.7 | 7.0 | 0.00 | 0.00 | 0.00 | 79 | 1018.2 |
| 20260507083041 | 65 | 0 | 1.7 | 6.1 | 0.00 | 0.00 | 0.00 | 79 | 1018.0 |
| 20260507082536 | 65 | 0 | 0.9 | 5.2 | 0.00 | 0.00 | 0.00 | 79 | 1018.1 |
| 20260507082036 | 65 | 352 | 0.0 | 8.7 | 0.00 | 0.00 | 0.00 | 79 | 1018.0 |
| 20260507081540 | 65 | 0 | 1.7 | 10.4 | 0.00 | 0.00 | 0.00 | 79 | 1018.0 |
| 20260507081036 | 65 | 339 | 0.9 | 10.4 | 0.00 | 0.00 | 0.00 | 79 | 1018.0 |
| 20260507080538 | 65 | 360 | 1.7 | 8.7 | 0.00 | 0.00 | 0.00 | 79 | 1018.1 |
| 20260507080053 | 65 | 288 | 1.7 | 7.8 | 0.00 | 0.00 | 0.00 | 79 | 1018.2 |
| 20260507075536 | 65 | 39 | 0.0 | 8.7 | 0.00 | 0.00 | 0.00 | 79 | 1018.4 |